Orbital Elements at Epoch 2459000.5 (2020-May-31.0) TDB
Reference: JPL 16 (heliocentric ecliptic J2000)
Element | Value | Uncertainty (1-sigma) | Units |
e | .1380663458843275 | 4.0106e-08 | |
a | 2.740361104999982 | 1.6424e-08 | au |
q | 2.362009460829097 | 1.0814e-07 | au |
i | 4.196546380031203 | 4.2888e-06 | deg |
node | 143.0437746535307 | 6.075e-05 | deg |
peri | 356.5655042654172 | 6.3105e-05 | deg |
M | 168.4726990170025 | 1.9e-05 | deg |
tp | 2458225.079725991294 (2018-Apr-16.57972599) | 8.4098e-05 | TDB |
period | 1656.952730453744 4.54 | 1.4896e-05 4.078e-08 | d yr |
n | .2172663066262709 | 1.9532e-09 | deg/d |
Q | 3.118712749170868 | 1.8691e-08 | au |
|
| | Orbit Determination Parameters
Additional Information
|